Simultaneous Nadir Overpasses (SNOs) Predictions

Prediction of SNOs between METOP-A and TERRA Satellite Orbit:

Table of predicted SNOs for the next 14.0 days since TLE Epoch: 5/17/2019
Index Date (METOP-A) Time (METOP-A) Lat,Lon (METOP-A) SZA (METOP-A ) Date (TERRA) Time (TERRA) Lat,Lon (TERRA) SZA (TERRA ) Distance(km) Time Diff (sec)
1 05/18/2019 18:55:11 81.45, -53.64 65.14 05/18/2019 18:56:23 81.46, -53.79 65.16 2.46 72
2 05/18/2019 19:45:52 -81.45, 113.64 114.88 05/18/2019 19:45:50 -81.45, 113.72 114.87 1.24 2
3 05/21/2019 14:29:27 81.45, 12.67 64.54 05/21/2019 14:30:38 81.45, 12.59 64.56 1.45 71
4 05/21/2019 15:20:07 -81.45, 179.97 115.48 05/21/2019 15:20:04 -81.45,-179.88 115.47 2.52 3
5 05/24/2019 10:03:42 81.45, 78.96 63.97 05/24/2019 10:04:52 81.45, 78.94 64.00 0.49 70
6 05/24/2019 10:54:22 -81.45,-113.34 116.00 05/24/2019 10:54:19 -81.45,-113.50 116.02 2.64 3
7 05/27/2019 05:37:58 81.45, 145.21 63.44 05/27/2019 05:39:07 81.45, 145.27 63.48 1.53 69
8 05/27/2019 06:28:38 -81.45, -47.08 116.52 05/27/2019 06:28:34 -81.44, -47.14 116.54 1.29 4
9 05/30/2019 01:12:13 81.45,-148.18 63.01 05/30/2019 01:13:21 81.46,-148.02 63.06 2.62 68




NCC Satellite Simultaneous Nadir Overpasses (SNOs) Prediction Service
